Station PBWM4 - 9014095 - Port Huron, North of Blue Water Bridge, MI Image indicating link to RSS feed of recent meteorological observations for station PBWM4


Conditions at PBWM4 as of
(4:00 pm EDT)
2000 GMT on 04/13/2024:
     

Click on the graph icon in the table below to see a time series plot of the last five days of that observation.

5-day plot - Atmospheric Pressure Atmospheric Pressure (PRES):29.89 in
5-day plot - Pressure Tendency Pressure Tendency (PTDY):-0.01 in ( Falling )
5-day plot - Air Temperature Air Temperature (ATMP): 57.0 °F
NOS Water Level Observation Network Water Level
Previous observations
TIME
(EDT)
5-day plot - Wind Direction
WDIR
 
5-day plot - Wind Speed
WSPD
kts
5-day plot - Wind Gust
GST
kts
5-day plot - Wave Height
WVHT
ft
5-day plot - Dominant Wave Period
DPD
sec
5-day plot - Average Wave Period
APD
sec
5-day plot - Mean Wave Direction
MWD
 
5-day plot - Atmospheric Pressure
PRES
in
5-day plot - Pressure Tendency
PTDY
in
5-day plot - Air Temperature
ATMP
°F
5-day plot - Water Temperature
WTMP
°F
5-day plot - Dew Point
DEWP
°F
5-day plot - Salinity
SAL
psu
5-day plot - Visibility
VIS
nmi
5-day plot - Tide (above MLLW)
TIDE
ft
2024-04-13 03:54 pm-------29.89- 57.9-----
2024-04-13 03:48 pm-------29.89- 57.6-----
2024-04-13 03:42 pm-------29.89- 57.9-----
2024-04-13 03:36 pm-------29.89- 57.4-----
2024-04-13 03:30 pm-------29.90- 56.8-----
2024-04-13 03:24 pm-------29.90- 56.7-----
2024-04-13 03:18 pm-------29.90- 56.1-----
2024-04-13 03:12 pm-------29.90- 55.8-----
2024-04-13 03:06 pm-------29.90- 56.3-----
2024-04-13 03:00 pm-------29.90+0.00 57.2-----
2024-04-13 02:54 pm-------29.90- 56.8-----
2024-04-13 02:48 pm-------29.90-------
2024-04-13 02:42 pm-------29.90-------
2024-04-13 02:36 pm-------29.90-------
2024-04-13 02:30 pm-------29.90- 55.2-----
2024-04-13 02:24 pm-------29.90- 54.9-----
2024-04-13 02:18 pm-------29.90-------
2024-04-13 02:12 pm-------29.90-------
2024-04-13 02:06 pm-------29.90-------
2024-04-13 02:00 pm-------29.90+0.00 54.3-----
2024-04-13 01:54 pm-------29.90- 53.8-----
2024-04-13 01:48 pm-------29.90-------
2024-04-13 01:42 pm-------29.90-------
2024-04-13 01:36 pm-------29.90-------
2024-04-13 01:30 pm-------29.90- 52.9-----
2024-04-13 01:24 pm-------29.90- 53.2-----
2024-04-13 01:18 pm-------29.90- 54.0-----
2024-04-13 01:12 pm-------29.90- 53.2-----
2024-04-13 01:06 pm-------29.90- 53.1-----
2024-04-13 01:00 pm-------29.90+0.02 52.5-----
2024-04-13 12:54 pm-------29.90- 52.7-----
2024-04-13 12:48 pm-------29.90- 53.4-----
2024-04-13 12:42 pm-------29.90- 52.0-----
2024-04-13 12:36 pm-------29.90- 52.2-----
2024-04-13 12:30 pm-------29.90-------
2024-04-13 12:24 pm-------29.90-------
2024-04-13 12:18 pm-------29.90-------
2024-04-13 12:12 pm-------29.90-------
2024-04-13 12:06 pm-------29.90-------
2024-04-13 12:00 pm-------29.90+0.03 51.4-----
2024-04-13 11:54 am-------29.90- 51.3-----
2024-04-13 11:48 am-------29.90-------
2024-04-13 11:42 am-------29.90-------
2024-04-13 11:36 am-------29.90-------
2024-04-13 11:30 am-------29.90- 49.6-----
2024-04-13 11:24 am-------29.89- 49.1-----
2024-04-13 11:18 am-------29.89- 48.7-----
2024-04-13 11:12 am-------29.90- 48.7-----
2024-04-13 11:06 am-------29.89- 48.2-----
2024-04-13 11:00 am-------29.90+0.05 48.2-----
2024-04-13 10:54 am-------29.90- 47.7-----
2024-04-13 10:48 am-------29.89- 47.7-----
2024-04-13 10:42 am-------29.89- 48.0-----
2024-04-13 10:36 am-------29.89- 48.0-----
2024-04-13 10:30 am-------29.89- 47.1-----
2024-04-13 10:24 am-------29.89- 46.4-----
2024-04-13 10:18 am-------29.89- 46.4-----
2024-04-13 10:12 am-------29.89- 46.4-----
2024-04-13 10:06 am-------29.88- 45.9-----
2024-04-13 10:00 am-------29.88+0.08 46.0-----
2024-04-13 09:54 am-------29.88- 45.5-----
2024-04-13 09:48 am-------29.88- 46.0-----
2024-04-13 09:42 am-------29.88- 45.1-----
2024-04-13 09:36 am-------29.88- 45.0-----
2024-04-13 09:30 am-------29.87- 44.8-----
2024-04-13 09:24 am-------29.87- 45.1-----
2024-04-13 09:18 am-------29.87- 44.8-----
2024-04-13 09:12 am-------29.87- 44.2-----
2024-04-13 09:06 am-------29.87- 44.2-----
2024-04-13 09:00 am-------29.87+0.09------
2024-04-13 08:54 am-------29.86-------
2024-04-13 08:48 am-------29.86- 43.7-----
2024-04-13 08:42 am-------29.86- 43.5-----
2024-04-13 08:36 am-------29.86- 43.3-----
2024-04-13 08:30 am-------29.85- 43.0-----
2024-04-13 08:24 am-------29.85- 43.0-----
2024-04-13 08:18 am-------29.85- 43.0-----
2024-04-13 08:12 am-------29.85- 42.6-----
2024-04-13 08:06 am-------29.85- 42.6-----
2024-04-13 08:00 am-------29.84+0.09 42.6-----
2024-04-13 07:54 am-------29.84- 42.4-----
2024-04-13 07:48 am-------29.84-------
2024-04-13 07:42 am-------29.83-------
2024-04-13 07:36 am-------29.83-------
2024-04-13 07:30 am-------29.83-------
2024-04-13 07:24 am-------29.82-------
2024-04-13 07:18 am-------29.82- 41.2-----
2024-04-13 07:12 am-------29.81- 41.4-----
2024-04-13 07:06 am-------29.81- 41.4-----
2024-04-13 07:00 am-------29.81+0.08 41.5-----
2024-04-13 06:54 am-------29.80- 41.5-----
2024-04-13 06:48 am-------29.80-------
2024-04-13 06:42 am-------29.80-------
2024-04-13 06:36 am-------29.79-------
2024-04-13 06:30 am-------29.79- 41.7-----
2024-04-13 06:24 am-------29.79- 41.5-----
2024-04-13 06:18 am-------29.78- 41.5-----
2024-04-13 06:12 am-------29.78- 41.7-----
2024-04-13 06:06 am-------29.78- 41.7-----
2024-04-13 06:00 am-------29.78+0.06------
2024-04-13 05:54 am-------29.77-------
2024-04-13 05:48 am-------29.77- 41.9-----
2024-04-13 05:42 am-------29.77- 41.9-----
2024-04-13 05:36 am-------29.76- 41.9-----
2024-04-13 05:30 am-------29.76- 42.1-----
2024-04-13 05:24 am-------29.76- 41.9-----
2024-04-13 05:18 am-------29.75- 42.1-----
2024-04-13 05:12 am-------29.75- 42.3-----
2024-04-13 05:06 am-------29.75- 42.1-----
2024-04-13 05:00 am-------29.75+0.05 42.3-----
2024-04-13 04:54 am-------29.75- 42.3-----
2024-04-13 04:48 am-------29.74- 42.4-----
2024-04-13 04:42 am-------29.74- 42.6-----
2024-04-13 04:36 am-------29.74- 42.4-----
2024-04-13 04:30 am-------29.74-------
2024-04-13 04:24 am-------29.73-------
2024-04-13 04:18 am-------29.73- 42.6-----
2024-04-13 04:12 am-------29.73- 42.6-----
2024-04-13 04:06 am-------29.73- 42.6-----
2024-04-13 04:00 am-------29.73+0.04------
2024-04-13 03:54 am-------29.73-------
2024-04-13 03:48 am-------29.72- 42.6-----
2024-04-13 03:42 am-------29.72- 42.6-----
2024-04-13 03:36 am-------29.72- 42.6-----
2024-04-13 03:30 am-------29.72- 42.8-----
2024-04-13 03:24 am-------29.72- 42.8-----
2024-04-13 03:18 am-------29.72- 43.0-----
2024-04-13 03:12 am-------29.72- 42.8-----
2024-04-13 03:06 am-------29.72- 42.8-----
2024-04-13 03:00 am-------29.71+0.04 43.0-----
2024-04-13 02:54 am-------29.71- 43.0-----
2024-04-13 02:48 am-------29.71- 42.8-----
2024-04-13 02:42 am-------29.71- 43.0-----
2024-04-13 02:36 am-------29.71- 43.0-----
2024-04-13 02:30 am-------29.70- 43.0-----
2024-04-13 02:24 am-------29.70- 43.2-----
2024-04-13 02:18 am-------29.70- 43.2-----
2024-04-13 02:12 am-------29.70- 43.2-----
2024-04-13 02:06 am-------29.70- 42.8-----
2024-04-13 02:00 am-------29.70+0.05 43.0-----
2024-04-13 01:54 am-------29.70- 43.2-----
2024-04-13 01:48 am-------29.70- 43.2-----
2024-04-13 01:42 am-------29.70- 43.0-----
2024-04-13 01:36 am-------29.70- 43.2-----
2024-04-13 01:30 am-------29.70- 43.3-----
2024-04-13 01:24 am-------29.70- 43.3-----
2024-04-13 01:18 am-------29.69- 43.3-----
2024-04-13 01:12 am-------29.69- 43.3-----
2024-04-13 01:06 am-------29.69- 43.3-----
2024-04-13 01:00 am-------29.69+0.05 43.3-----
2024-04-13 12:54 am-------29.69- 43.3-----
2024-04-13 12:48 am-------29.69- 43.3-----
2024-04-13 12:42 am-------29.69- 43.0-----
2024-04-13 12:36 am-------29.69- 43.3-----
2024-04-13 12:30 am-------29.69- 43.3-----
2024-04-13 12:24 am-------29.68- 43.3-----
2024-04-13 12:18 am-------29.68- 43.3-----
2024-04-13 12:12 am-------29.68- 43.7-----
2024-04-13 12:06 am-------29.68- 43.7-----
2024-04-13 12:00 am-------29.67+0.10 43.9-----
2024-04-12 11:54 pm-------29.67- 43.9-----
2024-04-12 11:48 pm-------29.67- 43.9-----
2024-04-12 11:42 pm-------29.67- 44.1-----
2024-04-12 11:36 pm-------29.67- 44.1-----
2024-04-12 11:30 pm-------29.66- 44.1-----
2024-04-12 11:24 pm-------29.66- 44.1-----
2024-04-12 11:18 pm-------29.66- 43.9-----
2024-04-12 11:12 pm-------29.66- 43.9-----
2024-04-12 11:06 pm-------29.65- 43.7-----
2024-04-12 11:00 pm-------29.65+0.14 43.7-----
2024-04-12 10:54 pm-------29.65- 43.7-----
2024-04-12 10:48 pm-------29.65- 43.5-----
2024-04-12 10:42 pm-------29.65- 43.7-----
2024-04-12 10:36 pm-------29.64- 43.3-----
2024-04-12 10:30 pm-------29.64- 43.3-----
2024-04-12 10:24 pm-------29.64- 43.2-----
2024-04-12 10:18 pm-------29.64- 42.6-----
2024-04-12 10:12 pm-------29.64- 41.9-----
2024-04-12 10:06 pm-------29.64- 41.5-----
2024-04-12 10:00 pm-------29.64+0.17 41.4-----
2024-04-12 09:54 pm-------29.64- 40.8-----
2024-04-12 09:48 pm-------29.63- 40.8-----
2024-04-12 09:42 pm-------29.62- 40.8-----
2024-04-12 09:36 pm-------29.62- 41.2-----
2024-04-12 09:30 pm-------29.61- 41.5-----
2024-04-12 09:24 pm-------29.60- 41.9-----
2024-04-12 09:18 pm-------29.59- 42.3-----
2024-04-12 09:12 pm-------29.59- 42.4-----
2024-04-12 09:06 pm-------29.58- 43.0-----
2024-04-12 09:00 pm-------29.57+0.16 43.3-----
2024-04-12 08:54 pm-------29.56- 43.7-----
2024-04-12 08:48 pm-------29.56- 43.7-----
2024-04-12 08:42 pm-------29.55- 43.5-----
2024-04-12 08:36 pm-------29.54- 43.7-----
2024-04-12 08:30 pm-------29.54- 44.1-----
2024-04-12 08:24 pm-------29.53- 43.9-----
2024-04-12 08:18 pm-------29.53- 43.9-----
2024-04-12 08:12 pm-------29.52- 44.1-----
2024-04-12 08:06 pm-------29.52- 44.1-----
2024-04-12 08:00 pm-------29.51+0.14 44.2-----
2024-04-12 07:54 pm-------29.50- 44.1-----
2024-04-12 07:48 pm-------29.50- 44.1-----
2024-04-12 07:42 pm-------29.49- 44.2-----
2024-04-12 07:36 pm-------29.49- 44.6-----
2024-04-12 07:30 pm-------29.49- 44.2-----
2024-04-12 07:24 pm-------29.48- 44.8-----
2024-04-12 07:00 pm-------29.46+0.14 45.1-----
2024-04-12 06:54 pm-------29.46- 45.1-----
2024-04-12 06:48 pm-------29.45- 45.1-----
2024-04-12 06:42 pm-------29.45- 45.3-----
2024-04-12 06:36 pm-------29.44- 45.5-----
2024-04-12 06:30 pm-------29.44- 45.7-----
2024-04-12 06:24 pm-------29.43- 45.7-----
2024-04-12 06:18 pm-------29.43- 45.7-----
2024-04-12 06:12 pm-------29.42- 45.7-----
2024-04-12 06:06 pm-------29.41- 45.7-----
2024-04-12 06:00 pm-------29.41+0.12 45.7-----
2024-04-12 05:54 pm-------29.41- 45.9-----
2024-04-12 05:48 pm-------29.40- 46.2-----
2024-04-12 05:42 pm-------29.40- 46.2-----
2024-04-12 05:36 pm-------29.39- 46.4-----
2024-04-12 05:30 pm-------29.39- 46.4-----
2024-04-12 05:24 pm-------29.38- 46.2-----
2024-04-12 05:18 pm-------29.38- 46.2-----
2024-04-12 05:12 pm-------29.37- 46.4-----
2024-04-12 05:06 pm-------29.37- 46.6-----
2024-04-12 05:00 pm-------29.36+0.08 46.8-----
2024-04-12 04:54 pm-------29.36- 46.8-----
2024-04-12 04:48 pm-------29.35- 47.1-----
2024-04-12 04:42 pm-------29.35- 47.5-----
2024-04-12 04:36 pm-------29.34- 47.3-----
2024-04-12 04:30 pm-------29.34- 46.9-----
2024-04-12 04:24 pm-------29.34- 47.3-----
2024-04-12 04:18 pm-------29.33- 47.7-----
2024-04-12 04:12 pm-------29.33- 47.3-----
2024-04-12 04:06 pm-------29.32- 47.1-----
2024-04-12 04:00 pm-------29.32+0.05 46.9-----
2024-04-12 03:54 pm-------29.32- 47.3-----